Mobile - Dauphin Island Weather Center

Moon Phase Calendar



Online Cameras

 


      

Current Conditions in Point Clear
6/13/2024 8:06:30 AM

78°F
Feels Like 78
Clear
Humidity
65%
Pressure
29.94"
Wind
4.6 mph (ENE)
Dew Point
65°F
UV Index
1/10 (Low)
Visibility
6 mi

Hourly Forecast

Date & Time Thu, Jun 13
8:00 AM
Thu, Jun 13
9:00 AM
Thu, Jun 13
10:00 AM
Thu, Jun 13
11:00 AM
Thu, Jun 13
12:00 PM
Thu, Jun 13
1:00 PM
Thu, Jun 13
2:00 PM
Thu, Jun 13
3:00 PM
Thu, Jun 13
4:00 PM
Thu, Jun 13
5:00 PM
Thu, Jun 13
6:00 PM
Thu, Jun 13
7:00 PM
Thu, Jun 13
8:00 PM
Thu, Jun 13
9:00 PM
Thu, Jun 13
10:00 PM
Thu, Jun 13
11:00 PM
Fri, Jun 14
12:00 AM
Fri, Jun 14
1:00 AM
Fri, Jun 14
2:00 AM
Fri, Jun 14
3:00 AM
Fri, Jun 14
4:00 AM
Fri, Jun 14
5:00 AM
Fri, Jun 14
6:00 AM
Fri, Jun 14
7:00 AM
Fri, Jun 14
8:00 AM
Fri, Jun 14
9:00 AM
Fri, Jun 14
10:00 AM
Fri, Jun 14
11:00 AM
Fri, Jun 14
12:00 PM
Fri, Jun 14
1:00 PM
Fri, Jun 14
2:00 PM
Fri, Jun 14
3:00 PM
Fri, Jun 14
4:00 PM
Fri, Jun 14
5:00 PM
Fri, Jun 14
6:00 PM
Fri, Jun 14
7:00 PM
Fri, Jun 14
8:00 PM
Fri, Jun 14
9:00 PM
Fri, Jun 14
10:00 PM
Fri, Jun 14
11:00 PM
Sat, Jun 15
12:00 AM
Sat, Jun 15
1:00 AM
Sat, Jun 15
2:00 AM
Sat, Jun 15
3:00 AM
Sat, Jun 15
4:00 AM
Sat, Jun 15
5:00 AM
Sat, Jun 15
6:00 AM
Sat, Jun 15
7:00 AM
Condition
Clear

Clear

Clear

Clear

Clear

Clear

Clear

Clear

Clear

Clear

Clear

Clear

Clear

Clear

Clear

Clear

Clear

Clear

Clear

Clear

Clear

Clear

Clear

Clear

Clear

Clear

Clear

Clear

Clear

Clear

Clear

Clear

Clear

Clear

Clear

Clear

Clear

Clear

Clouds

Clouds

Clouds

Clouds

Clear

Clear

Clear

Clear

Clear

Clear
Temperature 78°F78°F79°F81°F83°F84°F84°F85°F85°F84°F84°F83°F81°F81°F80°F79°F79°F80°F80°F79°F79°F78°F78°F78°F80°F82°F84°F85°F86°F86°F87°F87°F87°F87°F85°F84°F82°F82°F83°F83°F82°F81°F81°F80°F80°F80°F79°F80°F
Feels Like 78°F79°F79°F83°F84°F85°F86°F87°F88°F88°F88°F87°F85°F84°F80°F79°F79°F80°F80°F79°F80°F79°F78°F79°F80°F83°F86°F88°F88°F90°F92°F93°F93°F94°F92°F91°F89°F89°F90°F90°F87°F86°F85°F84°F84°F80°F79°F80°F
Cloudiness 0%1%2%3%3%4%0%0%0%0%0%0%0%0%0%0%0%0%0%0%0%0%0%0%0%0%0%0%0%0%0%0%0%0%3%6%9%7%32%48%44%38%0%0%0%0%0%0%
Visibility 6 mi6 mi6 mi6 mi6 mi6 mi6 mi6 mi6 mi6 mi6 mi6 mi6 mi6 mi6 mi6 mi6 mi6 mi6 mi6 mi6 mi6 mi6 mi6 mi6 mi6 mi6 mi6 mi6 mi6 mi6 mi6 mi6 mi6 mi6 mi6 mi6 mi6 mi6 mi6 mi6 mi6 mi6 mi6 mi6 mi6 mi6 mi6 mi
Precipitation 0%0%0%0%0%0%0%0%0%0%0%0%0%0%0%0%0%0%0%0%0%0%0%0%0%0%0%0%0%0%0%0%0%0%0%0%0%0%0%0%0%0%0%0%0%0%0%0%
Humidity 65%64%61%57%53%51%52%52%55%60%63%66%69%71%72%71%69%68%68%69%71%72%70%66%59%56%55%53%53%56%58%59%61%64%70%74%76%76%74%72%73%73%73%73%73%73%72%68%
Dew Point 65°F65°F65°F64°F64°F64°F65°F66°F67°F69°F70°F70°F70°F71°F70°F69°F68°F68°F68°F68°F69°F68°F67°F66°F64°F64°F66°F66°F67°F69°F70°F71°F72°F73°F74°F75°F74°F74°F74°F73°F72°F72°F72°F71°F71°F70°F69°F68°F
Pressure 29.94"29.94"29.94"29.94"29.94"29.91"29.91"29.91"29.88"29.88"29.88"29.88"29.88"29.88"29.91"29.91"29.91"29.91"29.91"29.88"29.91"29.91"29.91"29.91"29.94"29.94"29.94"29.94"29.94"29.91"29.91"29.88"29.88"29.85"29.88"29.88"29.88"29.88"29.91"29.91"29.91"29.91"29.91"29.91"29.91"29.91"29.91"29.94"
Wind Speed 9.1 mph9.2 mph7.2 mph5.1 mph3.2 mph1.8 mph4.7 mph7.8 mph11.2 mph12.7 mph11.6 mph9.7 mph7.8 mph7 mph6.9 mph6 mph4 mph4.1 mph5.1 mph5.2 mph6.4 mph6.8 mph7.2 mph7.6 mph7.6 mph7.6 mph7.3 mph4.9 mph2.5 mph6.1 mph10.2 mph11 mph11.6 mph10.9 mph9.8 mph9 mph8.4 mph7.9 mph4.6 mph3.6 mph5.1 mph4.9 mph4.8 mph5.9 mph6.2 mph8 mph7.4 mph5.7 mph
Wind
Direction
26°
NNE
39°
NE
44°
NE
42°
NE
66°
ENE
153°
SSE
184°
S
183°
S
187°
S
198°
SSW
209°
SSW
221°
SW
230°
SW
249°
WSW
282°
WNW
290°
WNW
302°
WNW
321°
NW
336°
NNW
344°
NNW
339°
NNW
352°
N
354°
N
355°
N
10°
N
21°
NNE
30°
NNE
57°
ENE
129°
SE
194°
SSW
187°
S
186°
S
191°
S
193°
SSW
213°
SSW
230°
SW
236°
SW
234°
SW
230°
SW
267°
W
275°
W
266°
W
267°
W
280°
W
303°
WNW
314°
NW
314°
NW
319°
NW

Daily Forecast

Date High Low Precip. Humidity
Today
Jun 13

Clear
85 °F
77 °F
0%
53%
Friday
Jun 14

Clear
87 °F
78 °F
0%
53%
Saturday
Jun 15

Clear
89 °F
79 °F
0%
53%
Sunday
Jun 16

Clear
87 °F
80 °F
0%
64%
Monday
Jun 17

Rain
87 °F
80 °F
97%
66%
Tuesday
Jun 18

Rain
85 °F
80 °F
87%
58%
Wednesday
Jun 19

Rain
86 °F
80 °F
100%
62%
Thursday
Jun 20

Rain
87 °F
78 °F
100%
55%
Friday
Jun 21

Rain
87 °F
78 °F
100%
61%
Saturday
Jun 22

Rain
86 °F
80 °F
100%
62%
Sunday
Jun 23

Rain
80 °F
77 °F
100%
89%
Monday
Jun 24

Rain
82 °F
78 °F
100%
93%
Tuesday
Jun 25

Rain
83 °F
78 °F
100%
89%
Wednesday
Jun 26

Rain
83 °F
81 °F
100%
80%
Thursday
Jun 27

Rain
85 °F
82 °F
100%
86%
Friday
Jun 28

Rain
84 °F
83 °F
100%
82%

Temperature 8-14 Day Outlook



Precipitation 8-14 Day Outlook






About Us
Contact Us
Site Map
Search Site
Advertise With Us
   
Mobile.USGulf.info
THE MOBILE - DAUPHIN ISLAND WEBSITE

Copyright 2024, Coastal Town
Privacy    |    Legal